Location: Kikino
(54.4440°N, 112.0940°W)
Time: 10:06:31
(UTC+00:00)

TIGRISAT - Pass Details

Date: 02 December 2023
Orbit: 597 x 675 km, 97.7° (Epoch: 22 February)

Event Time Altitude Azimuth Distance (km) Brightness Sun altitude
Exits shadow 02:11:05 - 1° (N) 2,470 ? -25.4°
Reaches altitude 10° 02:12:11 10° 354° (N) 2,087 ? -25.5°
Maximum altitude 02:15:47 24° 302° (WNW) 1,366 ? -26.0°
Drops below altitude 10° 02:19:19 10° 249° (WSW) 2,037 ? -26.6°
Sets 02:21:49 0° 235° (SW) 2,927 ? -26.9°
